Location: Newark
(42.8481°N, 0.4872°E)
Time: 12:17:58
(UTC+00:00)

N. Korean satellite - Visible Passes

Search period start: 24 September 2020 00:00
Search period end: 04 October 2020 00:00
Orbit: 455 x 503 km, 97.2° (Epoch: 23 September)

Date Brightness Start Highest point End Pass type
(mag) Time Alt. Az. Time Alt. Az. Time Alt. Az.
25 Sep 7.4 05:21:21 10° NNE 05:24:59 57° E 05:28:30 10° S visible
26 Sep 9.1 04:55:45 10° NE 04:58:52 26° E 05:01:55 10° SSE visible
27 Sep 10.0 04:30:53 10° ENE 04:32:39 13° E 04:34:23 10° ESE visible
29 Sep 8.1 05:10:45 10° NNE 05:14:12 41° E 05:17:33 10° S visible
30 Sep 9.6 04:45:21 10° NE 04:48:02 20° E 04:50:41 10° SE visible
02 Oct 7.0 05:25:53 10° NNE 05:29:28 67° E 05:32:58 10° S visible
03 Oct 8.8 05:00:10 10° NNE 05:03:22 29° E 05:06:28 10° SSE visible
